User: anonymous
Location: Unspecified
(0.0000°N, 0.0000°E)
Time: 16:45:52
(UTC+02:00)
Language:

NOSS 2-2 (E) - Orbit

View from above orbital plane
View from above orbital plane
View from above satellite
View from above satellite

Ground track
Ground track

The orbit data is extracted from the following two-line orbital elements,

1 21809U 91076E   14069.03372810 0.00000400  00000-0  21023-3 0    05
2 21809  63.3720 299.3341 0642000  10.8965 349.1035 13.40864067    09
Epoch (UTC): 10 March 2014 00:48:34
Eccentricity: 0.0642000
inclination: 63.3720°
perigee height: 625 km
apogee height: 1586 km
right ascension of ascending node: 299.3341°
argument of perigee: 10.8965°
revolutions per day: 13.40864067
mean anomaly at epoch: 349.1035°
orbit number at epoch: 0

The dashed part of the orbit path shows where the satellite is in the earth's shadow,  

DLR